Regional Weather Roundup
Issued by NWS

Home | Current Version | Previous Version | Graphics & Text | Print | Product List | Glossary Off
Versions: 1 2 3 4 5 6 7 8 9 10 11 12 13 14 15 16 17 18 19 20 21 22 23 24 25 26 27 28 29 30 31 32 33 34 35 36 37 38 39 40 41 42 43 44 45 46 47 48 49 50

000
ASUS43 KDMX 231008
RWRIA

WEATHER ROUNDUP FOR IOWA
NATIONAL WEATHER SERVICE DES MOINES IA
500 AM CDT SAT JUL 23 2016

NOTE: "FAIR" INDICATES FEW OR NO CLOUDS BELOW 12,000 FEET WITH NO
SIGNIFICANT WEATHER AND/OR OBSTRUCTIONS TO VISIBILITY.

* - THESE STATIONS ARE NOT NWS STATIONS...THUS NOT UNDER NWS
QUALITY CONTROL.  THEY ALSO DO NOT REPORT WEATHER SUCH
AS PRECIPITATION OR FOG.

IAZ001>003-012>014-020>022-031>034-043>046-231100-
   NORTHWEST IOWA

CITY           SKY/WX    TMP DP  RH WIND       PRES   REMARKS
CARROLL *      CLOUDY    77  77 100 E6        29.89F
CHEROKEE *     PTCLDY    78  77  97 SE6       29.88S HX  81
DENISON *      PTCLDY    81  73  78 S10G20    29.86S HX  85
LE MARS *      CLOUDY    79  77  94 S6        29.86S HX  83
SHELDON *      MOCLDY    77  77 100 SE6       29.87F
SIOUX CITY     CLOUDY    80  77  90 SW5       29.88R HX  87
SPENCER        PTCLDY    78  76  93 E8        29.90F HX  81
STORM LAKE *   CLOUDY    77  77 100 SE7       29.90F
$$

IAZ055>058-069>071-079>083-090>094-231100-
   SOUTHWEST IOWA

CITY           SKY/WX    TMP DP  RH WIND       PRES   REMARKS
ATLANTIC *     MOCLDY    79  75  89 SW10      29.92R HX  82
CLARINDA *       N/A     81  75  83 MISG      29.92F HX  86
COUNCIL BLFS *   N/A     79  73  83 S13       29.88F HX  82
CRESTON *      CLOUDY    79  77  94 S9        29.95S HX  83
HARLAN  *      MOCLDY    79  70  73 S13G25    29.92F HX  81
LAMONI         PTCLDY    78  76  93 S8        29.93F HX  81
RED OAK *      CLOUDY    79  75  89 S7        29.89F HX  82
SHENANDOAH *   PTCLDY    81  73  78 S13       29.89F HX  85
$$

IAZ047>049-059>061-072>074-084-231100-
   CENTRAL IOWA

CITY           SKY/WX    TMP DP  RH WIND       PRES   REMARKS
AMES           PTCLDY    77  77 100 S8        29.91S
ANKENY *         N/A    N/A N/A N/A MISG        N/A
BOONE *        CLOUDY    77  75  94 CALM      29.92S
CHARITON *       N/A    N/A N/A N/A MISG        N/A
DES MOINES     CLOUDY    80  76  87 S8        29.91R HX  86
GRINNELL*      CLEAR     75  73  92 SE7       29.95S
KNOXVILLE *    MOCLDY    77  75  94 SE6       29.92S
MARSHALLTOWN   CLOUDY    76  76 100 SE8       29.92F
NEWTON *       CLEAR     75  75 100 SE5       29.93S
PELLA *        CLEAR     77  74  92 SE3       29.94S
PERRY *          N/A     77  77  99 SE5       29.91F
$$

IAZ004>006-015-016-023>025-035-036-231100-
   NORTH CENTRAL IOWA

CITY           SKY/WX    TMP DP  RH WIND       PRES   REMARKS
ALGONA *       CLOUDY    79  77  94 SE6       29.92F HX  83
ESTHERVILLE    MOCLDY    76  76 100 E7        29.91F
FORT DODGE *   PTCLDY    79  75  89 SE3       29.92F HX  82
MASON CITY     CLOUDY    76  75  97 E6        29.97S
FOREST CITY *  CLOUDY    75  75 100 E6        29.95S
IOWA FALLS *     N/A     77  75  93 CALM      29.95S
$$

IAZ007>011-017>019-026>030-037>042-050>054-066-231100-
   NORTHEAST IOWA

CITY           SKY/WX    TMP DP  RH WIND       PRES   REMARKS
CEDAR RAPIDS   CLEAR     76  76 100 E5        29.96S
CHARLES CITY * MOCLDY    77  77 100 E5        29.97F FOG
CLINTON *      MOCLDY    75  74  96 CALM      29.98S
DECORAH *      CLOUDY    77  77 100 CALM      29.98S
DUBUQUE        CLOUDY    77  75  93 CALM      29.99F
MONTICELLO *   CLEAR     75  75 100 CALM      29.97S
OELWEIN *      CLOUDY    75  75 100 SE5       29.99R FOG
WATERLOO       MOCLDY    77  75  93 E6        29.94S
$$

IAZ064-065-067-068-078-231100-
   EAST CENTRAL IOWA

CITY           SKY/WX    TMP DP  RH WIND       PRES   REMARKS
DAVENPORT      CLEAR     74  72  93 SE3       29.98F FOG
IOWA CITY      CLEAR     76  75  97 CALM      29.97F
MT. PLEASANT * CLEAR     78  78 100 CALM      29.96F FOG
MUSCATINE *    CLEAR     75  73  94 CALM      29.96F
QUAD CITIES    CLEAR     75  72  90 CALM      29.97F
$$

IAZ062-063-075>077-085>089-095>099-231100-
   SOUTHEAST IOWA

CITY           SKY/WX    TMP DP  RH WIND       PRES   REMARKS
BURLINGTON     CLEAR     74  74 100 S3        29.96F FOG
FAIRFIELD *    PTCLDY    77  75  94 CALM      29.95F
KEOKUK *       CLEAR     75  75 100 S5        29.95F
CENTERVILLE *    N/A     75  75 100 CALM      29.96F
OTTUMWA        CLOUDY    77  74  90 S6        29.94F
WASHINGTON *   CLOUDY    75  75 100 CALM      29.97S FOG
$$

ABBREVIATIONS USED IN REMARKS
   TC - TEMPERATURES IN CELSIUS
  WCI - WIND CHILL INDEX
   HX - HEAT INDEX
  VSB - VISIBILITY
$$





USA.gov is the U.S. government's official web portal to all federal, state and local government web resources and services.